Flag for Germany Weather past 2 weeks in Herzogenrath, North Rhine-Westphalia, Germany

Now
54 °F

Scattered showers. Partly sunny.


Feels Like: 52 °F
Forecast: 48 / 69 °F
Wind: 7 mph from Southwest

Location: Geilenkirchen Airport

Current Time: Jul 30, 2015 at 9:08:12 AM

Latest Report: Jul 30, 2015 at 7:50 AM


Visibility: N/A

Pressure: 29.98 "Hg

Humidity: 88%

Dew point: 50 °F

Location of HerzogenrathLocation

Historic Weather in Herzogenrath — Graph

°F

Herzogenrath temperature yesterday

Maximum temperature yesterday: 66 °F (at 4:50 PM)
Minimum temperature yesterday: 54 °F (at 6:50 AM)
Average temperature yesterday: 59 °F

Past Weeks' High & Low Weather Summary

 TemperatureHumidityPressure
High90 °F (Jul 17, 3:50 PM)100% (Jul 16, 5:50 AM)30.12 "Hg (Jul 16, 5:50 AM)
Low54 °F (Jul 29, 6:50 AM)36% (Jul 17, 3:50 PM)29.56 "Hg (Jul 27, 3:50 AM)
Average67 °F69%29.90 "Hg
* Reported Jul 15 7:50 AM — Jul 30 7:50 AM, Herzogenrath, Weather by CustomWeather, © 2015

Note: Actual official high and low records may vary slightly from our data, if they occured in-between our weather recording intervals... More about our weather records

Advertising

Herzogenrath weather history for previous 24 hours

 ConditionsComfort  
Time TempWeatherWind HumidityBarometerVisibility
7:50 AM
Thu, Jul 30
54 °FScattered showers. Partly sunny.7 mph88%29.98 "HgN/A
6:50 AM54 °FSprinkles. Partly cloudy.8 mph88%29.98 "HgN/A
5:50 AM54 °FClear.8 mph82%29.95 "Hg10 mi
4:50 AM54 °FClear.7 mph82%29.95 "Hg10 mi
3:50 AM54 °FClear.8 mph77%29.95 "Hg10 mi
2:50 AM54 °FClear.9 mph77%29.95 "Hg10 mi
1:50 AM54 °FClear.6 mph77%29.95 "Hg10 mi
12:50 AM55 °FClear.2 mph72%29.95 "Hg10 mi
11:50 PM
Wed, Jul 29
55 °FClear.3 mph77%29.92 "Hg10 mi
10:50 PM55 °FClear.1 mph77%29.92 "Hg10 mi
9:50 PM57 °FSunny.3 mph72%29.92 "Hg10 mi
8:50 PM59 °FSunny.7 mph63%29.89 "Hg10 mi
7:50 PM63 °FSunny.17 mph49%29.89 "Hg10 mi
6:50 PM66 °FSunny.21 mph43%29.86 "Hg10 mi
5:50 PM64 °FSunny.25 mph49%29.86 "Hg10 mi
4:50 PM66 °FScattered clouds.26 mph46%29.83 "HgN/A
3:50 PM64 °FPassing clouds.20 mph56%29.80 "HgN/A
2:50 PM59 °FSprinkles. Partly sunny.7 mph77%29.80 "HgN/A
1:50 PM61 °FSprinkles. Scattered clouds.18 mph59%29.80 "HgN/A
12:50 PM63 °FScattered clouds.21 mph52%29.77 "HgN/A
11:50 AM63 °FScattered clouds.21 mph52%29.77 "HgN/A
10:50 AM61 °FScattered clouds.17 mph63%29.77 "HgN/A
9:50 AM57 °FScattered clouds.13 mph77%29.77 "HgN/A
Weather by CustomWeather, © 2015

See weather overviewHow to use our weather pages